Theta_e
323 324 324 325 330 327 326 331 330 328 326 319 318 325 328 328 328 327 323 321 324 323 320 319 318 316 316 315 314 313 312 311 311 310 310 310 310 310 310 309 309 308 307 307 308 308 308 307 306 306 306 306 306 305 305 305 305 304 304 303 302 302 302 301 301 300 300 301 300 299 297 295 294 294 294 295 295 295 295 295 295 295 295 295 296 296 297
326 325 323 325 329 326 323 325 326 331 331 324 326 332 327 327 330 328 322 321 322 321 319 318 317 316 315 314 313 312 311 311 310 310 310 310 309 310 309 309 308 307 307 307 308 308 307 306 306 305 305 305 305 304 304 304 304 304 303 302 302 301 300 298 298 298 298 299 298 296 295 294 294 294 294 294 294 294 294 294 294 294 294 294 294 295 295
327 325 322 321 326 328 326 323 321 326 330 327 329 329 326 328 328 321 319 322 322 319 318 317 316 315 314 313 312 312 311 310 310 309 309 309 309 309 309 308 308 307 307 307 307 307 307 306 306 305 305 304 303 302 302 303 303 303 302 302 301 299 297 296 296 296 296 296 296 295 295 295 295 294 294 294 294 294 294 294 294 294 294 294 294 294 294
329 324 322 321 323 327 328 328 324 323 326 326 326 325 326 329 325 319 320 323 320 318 316 315 315 314 313 313 312 311 310 310 310 309 309 309 309 309 309 308 308 308 307 306 306 306 306 306 305 305 304 303 302 302 302 302 302 302 302 301 299 297 296 296 295 295 295 295 295 295 295 295 294 294 294 294 294 294 294 294 294 294 294 294 294 294 294
329 325 325 324 324 326 327 325 320 318 320 322 322 323 323 322 320 319 321 321 319 317 315 314 314 313 313 313 312 311 310 310 309 309 309 309 308 308 308 308 308 308 307 306 306 306 306 305 305 304 304 303 302 301 300 301 301 301 301 299 297 296 296 296 296 296 295 295 295 294 294 294 294 294 294 294 294 294 294 293 293 294 294 294 294 294 293
328 325 325 324 323 325 325 318 314 315 318 320 322 323 321 319 318 319 320 319 317 316 315 315 314 313 313 312 311 311 311 310 310 309 309 309 308 307 307 307 307 307 307 306 305 305 305 304 304 304 303 303 302 301 300 300 300 300 299 297 296 296 296 296 296 296 296 295 295 294 294 294 294 294 294 294 293 293 293 293 293 293 294 294 294 294 293
328 325 324 323 324 325 321 315 313 313 315 318 318 318 317 317 318 318 319 317 316 315 315 314 314 313 313 312 311 311 311 311 310 309 309 309 308 307 307 307 306 306 306 305 305 304 304 304 303 303 303 303 302 301 300 299 299 298 297 297 297 297 297 297 297 296 296 296 295 295 294 294 294 294 293 293 293 293 293 293 293 293 293 294 294 294 293
324 326 327 323 322 319 315 314 314 313 315 317 319 320 318 317 317 317 317 316 315 314 314 313 313 313 312 311 311 310 310 310 310 310 309 309 308 308 307 307 306 306 306 305 305 304 303 303 303 302 303 302 302 300 299 298 297 297 297 297 297 297 297 297 297 297 296 296 296 295 295 294 294 294 294 293 293 293 293 293 293 293 293 293 293 293 293
319 323 323 319 319 320 318 316 315 315 316 319 324 327 322 316 315 315 315 315 315 314 313 312 312 311 311 310 309 309 309 309 309 310 309 309 309 308 307 307 306 306 305 305 305 304 303 303 302 302 302 302 301 300 299 298 297 298 298 298 297 297 297 297 297 297 297 296 296 296 295 295 295 294 294 293 293 293 293 293 293 293 293 293 293 293 293
316 320 322 320 323 327 324 320 318 316 314 315 321 326 324 317 314 313 313 315 314 312 311 311 310 311 311 309 308 308 309 308 309 309 309 308 308 307 306 306 306 305 305 305 304 304 303 302 302 302 302 301 301 300 299 298 298 298 298 298 298 297 297 297 297 297 297 297 296 296 296 295 295 294 294 294 293 293 293 293 293 293 293 293 293 293 293
317 323 327 325 325 327 324 321 318 314 313 312 315 324 326 317 312 313 314 313 312 311 310 310 310 311 312 310 308 307 308 308 308 308 308 307 306 306 306 306 305 305 305 304 304 303 303 302 302 301 301 301 300 300 299 298 298 299 298 298 298 298 298 297 297 297 297 297 297 296 296 296 295 295 294 294 294 293 293 293 293 293 293 293 293 293 294
321 326 328 324 322 322 320 319 317 314 313 312 316 326 328 316 311 313 313 311 311 310 309 310 311 312 312 310 307 307 308 309 308 308 307 306 306 305 306 305 305 305 304 304 303 302 302 301 301 301 301 300 300 300 299 298 298 299 299 299 298 298 298 298 297 297 297 297 297 297 297 296 296 295 294 294 294 293 293 293 293 293 293 293 293 293 294
323 326 328 324 322 321 318 316 315 313 312 315 321 329 325 314 311 313 312 311 311 310 309 311 311 310 310 309 307 307 308 308 307 307 306 305 305 305 305 305 305 304 304 303 302 302 301 301 301 301 300 300 300 300 299 298 298 298 299 299 299 298 298 298 298 298 297 297 297 297 297 297 296 295 295 294 294 294 294 293 293 293 293 293 293 293 294
320 324 327 323 321 319 316 314 313 312 316 323 325 322 317 312 312 313 311 311 310 309 310 310 309 309 309 308 307 307 307 307 306 306 305 305 305 305 305 305 304 304 303 303 302 301 301 301 301 300 300 300 300 300 299 299 299 298 299 299 299 299 299 298 298 298 298 297 297 297 297 297 296 295 295 294 294 294 294 294 293 293 293 293 293 293 293
318 322 323 323 322 318 314 314 314 314 320 324 318 312 312 313 313 312 311 310 310 310 310 309 309 309 308 307 307 306 307 306 305 305 305 305 304 304 304 304 303 303 303 302 301 301 301 301 301 300 300 300 299 299 299 299 299 299 299 299 299 299 299 299 298 298 298 297 297 297 297 297 296 295 295 294 294 294 294 294 293 293 293 293 293 293 293
322 326 325 322 320 315 312 315 317 316 317 317 313 311 312 313 312 311 311 310 310 310 309 308 308 308 307 307 306 306 306 305 304 304 304 304 304 304 304 303 303 302 302 301 301 301 300 300 300 300 299 299 299 299 299 299 299 299 298 298 298 299 299 299 298 298 298 297 297 297 297 297 296 295 295 294 294 294 294 294 294 293 293 293 293 293 293
317 321 320 316 312 310 311 314 314 315 315 313 313 314 314 312 312 311 310 309 309 309 309 308 308 307 307 306 306 306 305 305 304 304 304 303 304 304 303 303 303 302 301 301 301 300 300 300 300 300 299 299 299 299 299 299 299 299 298 298 298 298 299 299 298 298 298 298 297 297 297 297 296 296 295 294 294 294 294 294 294 294 293 293 293 293 293
313 313 312 310 309 310 311 312 313 314 315 313 313 314 313 312 312 311 309 309 309 309 309 308 307 307 307 306 306 305 305 304 304 303 303 303 303 303 303 303 302 302 301 301 300 300 300 300 300 299 299 299 299 299 299 299 299 299 299 298 298 298 299 299 298 298 298 298 297 297 297 297 296 296 295 294 294 294 294 294 294 294 293 293 293 293 293
316 317 313 309 310 309 310 312 313 313 314 313 312 313 313 311 311 310 309 309 308 308 309 309 307 306 306 306 305 305 304 304 303 303 303 303 303 303 302 302 301 301 301 300 300 300 300 300 300 299 299 299 299 299 299 299 298 298 298 298 298 299 299 299 298 298 298 298 297 297 297 297 296 296 295 294 294 294 294 294 294 294 294 293 293 293 293
316 316 311 308 308 308 308 311 313 312 313 312 311 312 312 311 310 309 309 309 309 308 309 308 307 306 306 306 305 304 304 303 303 303 303 303 303 303 302 301 301 301 301 300 300 300 300 300 300 300 299 299 299 299 299 298 298 298 298 298 298 298 299 299 298 298 298 298 297 297 297 296 296 295 295 294 294 294 294 294 294 295 294 293 293 293 293
312 311 309 308 310 310 308 309 311 311 312 311 310 310 311 310 309 309 308 308 309 308 308 307 307 306 306 306 305 304 303 303 303 303 303 303 302 302 302 302 301 300 301 301 300 300 300 300 300 300 300 299 299 299 299 298 298 297 297 297 298 298 299 298 298 298 298 297 296 296 296 296 296 295 294 294 294 294 294 295 295 295 294 294 293 293 293
316 314 311 310 314 314 309 307 309 310 310 310 310 309 309 309 309 309 308 308 308 308 307 307 307 306 305 305 305 304 303 303 303 303 303 303 302 302 302 302 301 300 300 301 300 300 300 300 300 300 299 299 299 299 299 298 298 298 298 297 298 298 298 298 297 297 297 296 296 295 295 295 295 295 295 294 294 294 294 295 295 295 294 294 293 293 293
319 314 310 309 312 312 308 307 309 309 309 310 309 308 309 309 308 308 308 307 307 307 307 307 307 306 305 304 304 303 303 303 303 303 302 302 302 302 302 301 300 300 300 301 300 300 300 300 300 300 299 299 299 299 299 299 299 299 299 298 298 298 298 298 297 297 297 296 296 295 295 295 295 295 295 295 294 294 294 295 295 295 295 294 294 294 293
313 311 310 310 311 310 309 309 309 308 309 309 309 308 308 308 308 308 308 308 308 307 306 306 306 306 305 304 304 303 302 303 303 302 302 302 302 301 300 299 299 300 300 300 300 300 300 300 300 299 299 299 299 299 299 299 299 299 299 299 298 298 297 297 297 297 297 296 296 296 296 295 295 295 295 295 295 295 295 295 295 295 295 294 294 294 294
312 311 310 310 311 310 309 309 308 308 309 309 308 308 308 307 308 308 308 308 308 307 306 305 304 305 305 304 303 303 302 302 302 302 302 302 301 300 299 298 298 299 300 300 300 300 300 300 300 299 299 299 299 299 299 299 299 299 299 299 299 297 296 297 297 297 297 297 296 296 296 295 295 296 296 295 295 295 295 295 295 294 294 294 294 294 294
311 311 310 310 310 309 309 308 308 308 308 308 308 308 307 307 308 308 308 308 307 306 306 305 304 304 304 304 303 303 302 302 302 302 302 301 300 299 299 298 298 298 298 299 300 300 300 300 300 300 300 299 299 299 299 299 299 299 299 299 298 296 296 297 297 297 297 297 297 296 296 295 295 295 295 295 295 295 295 295 295 295 294 294 294 294 294
311 311 311 309 308 307 308 309 308 308 308 308 308 307 307 307 307 307 307 307 306 306 306 305 304 303 304 303 303 302 302 302 302 302 301 300 299 299 298 298 298 298 297 298 299 300 300 300 300 300 300 299 299 299 299 299 299 299 299 299 297 296 296 297 297 297 297 297 297 297 296 295 295 295 295 295 295 295 296 295 295 295 295 294 295 294 294
311 311 311 310 309 308 308 309 309 309 308 309 308 307 307 307 307 307 306 306 306 305 305 304 304 304 303 302 302 301 302 302 301 301 300 300 299 299 298 298 299 299 298 297 298 300 300 300 300 300 299 299 299 299 299 299 299 299 298 298 297 296 297 297 297 297 297 297 297 297 296 296 295 295 295 295 295 295 296 295 295 295 295 295 295 295 294
310 310 311 311 310 309 309 309 309 308 308 309 308 308 307 307 306 306 306 305 305 305 304 303 303 303 302 301 301 301 301 301 300 300 300 299 299 299 298 298 299 300 298 297 298 300 300 300 300 300 300 299 299 299 299 299 299 298 298 297 296 297 297 297 297 296 296 296 297 296 296 296 295 295 295 294 295 295 296 296 295 295 295 295 295 295 295
309 310 311 310 309 309 309 308 308 308 308 308 308 307 307 307 306 306 306 305 305 305 304 303 302 302 301 301 301 301 301 300 300 300 299 299 299 299 298 298 299 300 299 297 297 299 300 300 300 300 300 300 299 299 300 299 299 298 297 297 297 297 297 297 296 296 296 296 296 296 296 296 295 295 295 295 295 295 295 296 296 295 295 295 295 295 295
309 309 310 310 309 308 308 308 308 307 307 307 307 307 306 306 306 305 305 305 305 305 304 303 302 302 301 300 300 301 301 300 300 300 299 299 299 298 297 298 299 299 298 297 297 297 299 300 300 300 300 300 299 299 299 299 299 298 298 297 297 297 297 296 296 296 296 296 296 296 296 296 296 296 295 295 295 295 295 295 295 295 295 295 295 295 295
309 308 309 309 308 308 308 308 307 307 306 306 307 306 305 305 305 305 305 305 305 305 304 303 303 301 300 300 301 301 300 300 300 300 299 299 298 297 297 297 298 298 298 297 298 298 298 298 299 299 299 299 299 298 297 298 299 299 298 297 296 296 296 295 296 296 296 296 296 296 296 296 295 295 295 295 295 295 295 295 295 295 295 295 295 295 295
308 307 307 308 308 308 307 307 307 306 306 306 306 305 305 306 305 305 305 305 305 304 303 302 301 300 300 301 301 301 301 300 300 299 298 298 297 298 298 297 297 297 298 299 299 299 298 298 298 298 298 298 298 297 297 298 298 298 298 297 296 295 295 295 295 295 295 296 296 295 295 295 295 296 296 295 295 295 295 295 295 295 295 295 295 295 295
309 308 308 308 308 308 307 307 307 307 306 306 306 306 305 305 305 305 305 305 304 303 302 301 300 300 300 301 301 301 300 300 299 298 298 297 298 298 298 297 297 298 299 299 299 300 299 299 299 299 298 298 297 297 297 297 298 298 298 297 296 295 295 295 295 295 295 295 295 295 295 295 295 295 295 295 295 295 295 294 295 295 295 295 295 295 295
309 309 309 309 308 308 308 307 307 307 306 306 306 306 305 305 305 305 305 304 303 303 302 301 300 300 300 301 300 300 300 299 298 298 298 298 298 298 298 298 298 299 299 299 299 299 299 299 299 299 299 298 298 297 296 296 297 298 298 296 295 295 296 296 296 295 295 295 295 295 295 295 295 295 295 295 295 295 295 295 295 294 294 295 295 295 294
309 309 308 308 308 308 307 307 306 306 307 306 306 306 306 305 305 305 305 304 303 302 302 301 301 300 300 300 300 300 299 299 299 299 299 298 299 299 298 299 299 299 299 299 299 299 299 299 299 299 299 298 298 298 296 295 296 297 296 295 296 296 296 296 296 295 295 295 295 295 295 295 295 295 295 295 295 295 295 294 294 294 294 294 294 294 294
309 309 308 308 308 307 307 307 307 306 307 307 306 306 306 305 305 305 305 304 304 302 301 301 300 300 300 300 299 299 300 299 299 299 299 299 299 299 298 298 299 299 299 299 299 299 299 299 299 298 298 298 297 298 297 296 296 296 296 295 295 296 297 296 296 295 295 295 295 295 295 295 295 295 295 295 295 295 294 294 294 294 294 294 294 294 294
308 308 308 308 308 307 307 307 307 306 307 307 306 306 306 306 305 305 305 305 304 302 301 300 300 300 300 300 300 299 299 299 299 299 299 299 299 298 298 298 299 299 299 299 299 299 299 299 299 298 298 298 297 297 297 297 297 297 296 295 295 296 297 296 296 295 295 294 295 295 295 295 295 295 295 295 295 294 294 294 294 294 294 294 294 293 293
308 307 308 308 307 307 307 307 307 307 307 306 306 306 306 305 304 304 304 303 302 301 301 300 300 300 300 300 300 299 299 299 299 299 299 299 299 298 298 298 299 299 299 299 299 299 299 299 298 298 298 298 298 298 298 297 297 297 297 295 295 296 297 296 296 295 295 295 295 295 295 295 295 295 295 295 295 294 294 294 294 294 294 294 294 294 293
307 307 307 307 307 307 307 306 306 307 306 306 306 306 305 304 303 302 302 302 301 301 301 300 300 300 300 299 299 298 299 299 299 299 299 299 299 298 298 299 299 299 299 299 300 300 299 299 298 297 298 299 298 298 298 297 297 298 296 295 295 296 297 296 296 295 295 295 295 295 295 295 295 295 295 295 295 295 294 294 294 294 294 294 294 294 294
307 307 307 307 307 307 306 306 306 306 306 306 306 305 304 303 302 302 302 302 301 301 301 301 300 300 299 299 299 299 299 299 299 299 300 300 299 298 298 298 298 298 298 298 299 299 299 299 298 298 299 299 299 299 299 298 297 297 296 295 295 296 296 297 296 295 295 295 295 295 295 295 295 295 295 295 295 295 295 294 294 294 294 294 294 294 294
307 307 307 307 307 306 306 305 306 306 306 306 305 304 303 303 302 302 302 302 301 301 301 301 300 300 299 299 299 299 299 300 300 300 300 300 299 299 298 298 298 297 297 297 297 297 298 299 299 299 300 300 300 300 300 299 298 297 297 296 296 296 296 296 296 296 295 295 295 295 295 295 295 295 295 295 295 295 295 295 295 294 294 294 294 294 294
306 306 306 307 307 306 305 305 306 306 306 305 305 305 303 302 302 302 302 302 302 302 301 301 300 300 300 300 299 300 300 300 300 300 300 300 300 300 299 299 299 298 298 297 296 296 297 298 299 300 300 300 300 300 300 299 298 297 298 298 297 297 296 296 296 296 296 296 296 296 296 295 295 295 295 295 295 295 295 295 294 294 294 294 294 294 294
306 306 306 306 306 306 305 305 306 306 306 305 305 305 304 303 302 302 302 302 302 302 301 301 300 300 300 300 300 300 300 300 300 300 300 300 300 300 300 300 300 299 298 297 296 296 297 299 300 300 300 300 300 300 300 299 298 297 297 298 298 297 297 296 296 296 296 296 296 296 295 296 296 295 295 295 295 295 295 295 295 294 294 294 294 294 294
306 305 305 306 306 305 305 305 305 305 305 305 305 305 304 303 302 303 302 302 302 302 301 301 301 300 301 301 301 301 301 301 301 301 301 301 301 301 301 301 300 299 297 296 295 295 296 299 300 301 300 300 300 300 299 299 298 297 298 298 298 298 297 296 296 296 296 296 296 296 296 296 296 296 295 295 295 295 295 295 295 295 295 294 294 294 294
305 305 305 305 305 305 305 305 305 305 305 304 305 305 305 303 303 302 302 302 302 301 301 301 301 301 301 301 301 301 301 301 301 301 301 301 301 301 301 301 300 298 296 295 295 295 296 298 300 301 300 300 300 300 300 299 299 298 298 298 298 298 297 297 296 296 296 296 296 296 296 296 296 296 296 295 295 295 295 295 295 295 295 294 294 294 294
305 305 305 305 305 305 305 305 305 305 305 305 305 305 304 303 303 302 302 302 302 301 301 301 301 301 301 301 301 301 301 301 301 302 301 301 301 301 301 300 299 298 297 296 295 295 296 298 300 300 300 300 300 300 300 300 300 299 298 297 297 298 297 297 297 297 296 296 296 296 296 296 296 296 296 296 295 295 295 295 295 295 295 295 294 294 294
306 306 305 305 305 306 306 306 305 304 304 304 304 303 303 303 303 302 302 302 301 301 301 301 301 301 301 301 301 302 302 302 302 302 301 301 301 301 299 299 299 299 299 298 296 295 296 297 298 299 299 300 301 301 300 300 300 299 298 297 297 297 297 297 297 297 297 297 296 296 296 296 296 296 296 296 296 295 295 295 295 295 295 295 294 294 294
307 306 306 306 306 306 306 305 304 304 303 303 303 302 302 303 302 302 302 302 301 301 301 301 301 302 302 301 301 302 302 302 302 302 301 302 301 300 299 299 300 301 301 300 298 297 296 296 297 299 300 300 300 301 301 301 300 300 299 298 298 298 298 298 297 297 297 297 297 296 296 296 296 296 296 296 296 296 296 295 295 295 295 294 294 294 294
307 306 306 306 305 305 305 305 304 304 303 303 303 303 302 302 302 302 302 302 302 301 301 301 301 302 302 302 302 302 302 302 302 301 301 301 301 301 300 301 301 301 301 300 300 299 298 297 298 299 300 300 301 301 301 301 301 300 299 298 298 298 298 298 297 297 297 297 297 296 296 296 296 296 296 296 296 296 296 295 295 295 295 294 294 294 294
307 306 305 305 305 305 305 305 304 304 304 303 303 302 302 302 302 302 302 302 302 302 301 301 301 301 302 302 302 302 302 302 302 302 301 301 301 301 301 301 301 301 302 301 301 301 300 299 299 300 300 300 301 301 301 301 301 300 299 299 299 299 298 298 297 297 297 297 297 297 296 296 296 296 296 296 296 296 295 295 295 295 294 294 294 294 294
306 306 306 306 305 305 305 305 304 304 304 303 303 303 303 302 302 302 302 302 302 302 301 301 301 302 302 302 302 302 302 302 302 302 301 301 301 301 301 301 301 301 301 301 301 301 301 301 301 301 301 300 301 301 301 301 301 300 300 300 300 299 298 298 298 297 297 297 297 296 296 296 296 296 296 296 296 296 295 295 295 295 294 294 294 293 293
Wind_Speed
3 5 4 1 7 5 3 4 4 3 2 5 9 7 6 8 6 5 10 16 15 15 17 17 18 19 20 22 25 28 29 30 31 32 32 31 31 29 26 23 22 21 20 21 22 21 21 20 19 17 16 15 14 13 11 10 10 11 10 11 12 13 13 13 13 12 11 11 12 13 16 19 21 22 22 22 22 22 23 23 23 23 22 22 22 22 22
5 7 7 1 8 7 4 5 4 2 3 4 5 3 3 6 5 6 15 15 10 11 13 12 16 22 25 28 29 31 31 31 32 32 32 31 30 28 26 24 24 23 23 23 23 22 21 19 18 17 17 16 14 12 11 11 11 11 10 11 12 13 14 13 12 11 11 12 13 15 19 21 22 23 24 24 24 25 25 25 25 25 25 25 25 25 25
5 6 7 3 8 9 6 5 7 6 5 5 5 4 4 7 6 8 14 11 3 5 10 14 20 26 27 28 29 30 31 33 33 32 32 31 29 28 26 26 25 24 24 23 22 22 21 19 18 18 18 16 14 13 12 12 12 11 10 10 12 15 17 18 17 15 15 16 17 19 21 22 22 23 23 24 25 25 25 26 26 26 26 26 27 27 28
3 4 5 4 6 10 8 4 7 6 3 3 3 3 2 5 10 12 12 8 5 7 13 17 21 26 27 27 28 29 29 33 35 34 33 32 30 28 27 27 26 24 24 23 21 22 22 20 19 18 17 16 15 15 14 13 12 11 9 11 14 18 21 22 23 22 22 22 23 23 23 23 22 22 23 24 24 24 24 25 25 25 26 27 27 27 27
2 4 2 4 3 6 2 2 2 2 2 2 3 1 2 5 12 12 7 7 9 12 16 17 18 21 25 27 31 32 31 32 33 34 35 33 31 29 28 27 26 25 24 23 22 23 22 20 19 17 16 15 16 17 16 14 12 10 11 15 19 21 23 24 25 26 26 26 26 26 25 25 24 24 24 24 24 24 24 24 25 25 26 26 26 26 26
3 5 4 4 2 3 4 5 3 4 3 4 5 2 2 3 3 3 3 7 14 16 17 19 19 21 24 28 33 36 37 36 35 34 35 35 32 30 29 28 27 26 26 24 23 23 21 19 18 16 15 15 17 17 18 16 14 13 15 20 23 24 25 25 26 26 26 27 28 27 27 27 26 26 26 25 24 24 25 26 27 27 27 26 26 25 25
3 2 4 3 3 4 4 5 3 4 5 7 8 5 4 4 3 0 7 13 18 19 19 22 23 23 27 30 31 33 36 39 39 37 37 35 33 32 30 29 28 27 26 25 23 23 21 19 18 17 15 16 17 17 17 17 16 16 19 22 24 24 25 25 26 26 26 27 28 28 28 28 29 30 29 27 26 26 27 28 29 28 28 27 26 25 24
2 2 3 2 3 4 4 5 3 3 6 7 7 4 3 3 3 3 9 12 14 18 22 24 25 26 28 27 25 28 32 35 38 39 38 36 34 33 31 29 28 27 26 25 24 23 21 19 18 17 16 16 17 17 18 19 20 21 21 23 24 24 24 25 25 25 26 26 27 28 28 29 31 31 30 29 28 27 28 28 29 29 29 28 27 26 24
2 3 2 0 2 4 2 2 3 4 5 5 6 3 2 3 2 3 10 13 14 19 23 26 29 31 26 17 13 22 29 32 36 37 36 34 33 32 30 28 27 26 25 24 23 22 21 19 17 17 17 16 17 18 18 19 21 22 22 23 23 23 23 23 23 24 24 25 26 27 28 29 30 31 30 29 28 28 28 29 30 31 30 29 28 27 26
2 4 2 1 2 3 5 6 7 7 5 6 6 5 2 4 2 7 13 14 15 18 23 29 31 29 19 7 9 22 30 32 35 34 31 30 30 30 30 28 27 27 25 24 23 22 21 20 18 18 18 17 17 18 18 19 20 21 21 22 22 22 21 21 21 22 22 23 25 26 27 28 29 30 30 29 28 28 29 30 31 31 31 30 29 29 27
2 4 3 3 3 4 6 7 6 7 9 8 6 4 3 5 9 16 16 16 18 21 27 33 31 20 11 6 12 27 34 34 34 33 30 29 29 29 29 28 28 28 26 25 24 22 21 21 19 18 18 17 17 18 18 18 19 19 19 20 20 20 20 19 19 19 20 21 23 24 25 27 27 28 28 28 28 28 29 30 32 32 31 30 30 30 29
3 4 3 3 3 4 5 5 6 9 12 9 6 1 6 8 17 25 23 21 24 27 30 32 25 12 9 13 23 34 39 36 34 33 32 32 31 30 29 28 28 27 26 25 24 22 22 22 20 19 18 18 18 18 18 18 18 18 17 17 17 18 18 17 17 17 18 19 21 22 23 25 26 27 27 27 26 27 28 30 31 32 32 32 32 32 32
3 4 2 2 3 4 4 6 12 14 9 6 4 4 7 16 24 29 30 29 30 33 33 28 17 5 8 24 36 41 41 38 36 33 32 33 31 30 29 28 28 27 26 25 24 23 23 23 21 19 18 18 18 17 17 17 17 17 16 14 14 15 15 16 15 15 16 17 19 20 21 22 24 25 26 26 26 26 27 29 31 32 33 33 33 34 34
3 3 2 0 3 4 5 9 13 12 6 3 5 4 12 27 30 28 32 32 31 34 32 23 15 12 20 34 42 42 40 40 37 35 34 33 31 30 29 28 28 28 26 25 25 24 23 23 21 18 17 17 17 17 16 16 16 16 14 12 12 11 12 13 13 14 14 15 16 18 19 20 22 24 25 25 25 25 27 28 30 32 33 34 34 35 35
3 2 2 2 3 5 16 18 7 4 3 4 6 7 16 29 33 31 34 33 32 33 28 21 21 27 35 41 42 41 41 40 38 37 36 35 33 31 30 29 28 28 27 26 25 24 23 22 20 18 17 17 17 17 15 14 14 14 12 11 10 9 9 10 11 12 12 13 14 16 17 19 20 22 24 24 24 25 26 28 30 32 33 34 35 35 36
4 2 3 4 4 6 19 16 3 5 6 3 8 18 20 23 29 33 35 34 34 35 30 28 32 37 42 43 41 41 41 39 39 38 36 35 34 33 31 30 28 28 28 27 26 23 22 21 19 17 17 17 17 16 14 13 13 11 11 10 10 9 8 8 9 10 10 11 12 14 15 17 19 21 22 23 23 24 26 28 30 32 33 34 34 35 35
4 3 5 4 4 4 12 6 0 9 10 2 8 23 28 28 31 34 35 34 35 34 33 35 39 42 44 44 42 42 41 40 40 39 37 36 34 32 31 29 28 28 29 28 26 23 21 20 19 18 17 17 16 16 14 13 11 10 9 9 8 8 8 7 7 7 8 9 11 12 14 16 18 19 21 21 22 23 25 27 29 31 32 33 33 34 35
1 1 1 1 3 2 7 4 4 13 13 6 9 20 29 32 33 34 36 36 36 36 38 40 42 44 45 45 43 42 42 40 40 39 37 35 33 32 31 29 29 30 29 27 25 23 22 21 19 17 17 17 16 16 14 12 10 9 8 7 6 7 7 6 6 5 5 8 10 11 13 14 16 18 19 20 21 23 24 26 28 30 31 32 32 33 34
1 1 2 3 3 3 6 6 8 12 12 11 13 20 27 31 32 34 37 37 37 38 40 42 44 45 46 45 43 41 42 41 40 39 38 36 34 32 30 28 30 32 29 27 26 24 23 21 19 17 17 17 16 16 14 12 10 9 8 7 6 7 6 5 5 4 4 7 10 11 12 13 15 16 17 18 20 21 22 24 27 29 30 31 31 32 33
2 2 2 2 4 4 5 8 11 13 14 15 17 22 28 31 32 34 37 37 38 40 41 44 46 45 45 45 43 41 41 41 40 39 38 36 35 32 29 28 31 32 29 27 26 24 23 21 19 17 16 15 15 14 12 9 8 7 8 8 7 7 5 4 4 4 4 7 9 11 11 12 14 15 15 17 19 20 21 23 26 27 29 30 30 31 32
2 2 2 5 5 3 2 6 11 15 17 19 21 24 28 31 33 35 36 36 38 40 41 44 46 44 43 44 43 42 41 41 40 39 37 36 34 32 30 27 28 31 30 27 25 24 22 20 18 15 14 13 13 12 9 8 8 8 8 7 6 5 4 3 4 5 6 7 9 10 11 12 13 14 14 16 17 19 20 22 24 25 27 27 28 29 30
1 3 6 9 5 1 3 9 14 16 18 21 24 26 29 32 35 37 37 35 36 38 41 43 44 43 42 42 41 42 42 42 41 38 36 35 33 32 29 26 26 30 31 27 24 23 22 20 17 15 13 13 13 11 10 9 8 8 7 6 4 4 3 2 5 7 8 8 10 11 12 12 12 12 14 15 17 18 19 21 22 23 24 25 26 27 28
3 6 14 13 4 4 9 14 15 17 18 21 25 28 30 33 35 38 38 37 37 38 40 41 42 43 42 41 40 41 41 41 39 36 35 35 33 31 28 26 26 30 30 28 24 23 22 20 17 15 15 14 13 12 11 9 7 6 6 5 4 4 4 3 5 7 7 9 11 12 13 13 12 11 13 14 16 17 18 20 20 21 22 23 24 25 26
1 10 20 14 3 8 16 17 16 17 18 21 25 29 31 34 35 37 38 38 39 39 39 38 39 42 43 42 41 41 41 38 37 36 36 34 31 29 27 27 28 30 30 28 25 23 21 20 17 16 15 14 13 12 11 8 7 6 5 3 2 3 3 4 5 6 6 8 10 12 13 13 11 11 11 13 15 16 17 18 19 20 21 22 22 23 24
3 15 20 11 6 15 20 17 16 17 17 20 25 29 32 34 35 36 37 37 37 38 38 36 37 40 42 42 41 40 38 36 37 38 36 33 29 28 27 27 28 29 29 28 26 23 20 19 18 17 15 14 13 12 10 8 7 6 5 3 0 2 5 7 7 6 5 5 7 10 12 12 11 11 10 11 13 15 16 17 17 18 20 21 21 22 22
8 17 18 12 13 22 23 19 18 18 17 19 24 28 32 33 33 34 35 35 36 37 37 36 37 38 40 40 39 36 35 36 37 37 34 31 30 28 27 26 27 27 28 28 26 23 21 20 19 17 15 14 14 12 10 9 7 6 6 4 1 3 7 8 6 5 4 4 5 7 10 12 11 11 10 10 12 13 15 16 16 17 19 20 21 21 21
15 22 20 16 17 22 23 20 20 20 19 19 22 27 30 31 31 31 32 33 34 35 35 36 37 37 36 36 34 33 34 36 37 35 32 30 29 27 25 24 24 25 26 27 28 25 22 20 19 18 17 15 14 12 11 9 8 7 6 3 2 5 9 7 4 3 2 2 3 5 8 10 11 11 10 11 12 12 13 14 15 16 18 19 20 20 21
20 23 20 14 16 23 24 21 21 22 21 19 20 25 29 30 30 30 31 32 33 34 34 35 37 36 35 33 32 32 34 35 35 34 31 29 27 24 22 23 24 23 23 26 28 27 23 21 20 19 18 17 15 13 11 9 8 8 6 3 5 8 9 6 3 1 1 2 1 3 5 8 10 10 11 11 11 11 11 12 14 15 16 18 19 20 20
23 23 18 13 19 26 26 22 24 25 23 20 21 24 29 30 30 30 32 33 34 34 34 35 35 35 35 33 33 35 36 35 34 32 30 28 25 23 21 22 23 22 21 24 28 28 25 22 21 20 19 18 15 13 11 9 9 9 6 4 7 8 7 5 3 2 2 1 0 1 2 5 7 8 9 10 10 10 9 10 13 14 15 16 18 19 20
22 21 17 16 22 27 26 26 27 27 25 25 25 26 29 30 31 31 33 33 33 33 34 35 35 34 34 34 35 36 35 34 32 30 28 26 24 22 21 22 24 23 21 22 27 29 27 25 22 20 19 18 15 13 12 11 10 10 7 5 7 8 7 5 4 2 2 2 2 1 0 3 5 6 7 8 9 9 9 9 11 13 14 14 16 18 19
20 17 18 21 25 27 27 28 28 26 25 27 27 28 30 31 32 33 33 33 33 34 34 35 35 34 33 34 35 34 33 31 31 29 27 25 23 22 22 24 25 25 22 21 23 26 28 27 24 21 19 18 16 14 13 13 12 12 9 7 8 9 8 7 5 4 3 3 3 2 1 2 3 4 5 6 7 7 8 7 8 11 12 13 14 16 18
19 18 21 25 26 27 28 28 27 26 27 28 28 29 31 31 32 34 34 33 33 33 33 34 35 34 34 34 33 32 31 30 29 28 25 24 23 21 21 23 23 23 22 21 20 20 21 23 24 23 21 18 15 13 13 14 14 13 11 9 8 9 10 8 6 4 3 3 2 2 1 2 3 3 3 4 5 6 7 6 7 9 11 11 12 14 16
22 23 24 26 27 28 29 28 27 27 28 28 29 29 29 29 31 33 33 31 30 31 33 34 35 34 34 33 32 31 30 28 27 26 24 24 24 22 20 20 21 22 22 20 18 16 15 15 16 17 17 15 13 11 13 15 15 14 12 10 9 10 11 9 7 5 4 3 3 2 1 2 2 2 2 3 4 4 6 6 6 7 9 9 10 12 14
21 21 22 24 27 29 29 28 28 28 27 27 27 28 28 29 31 32 31 29 30 31 33 34 33 32 32 32 31 30 29 28 27 26 25 25 25 22 19 20 21 22 21 19 18 17 15 13 11 11 11 12 11 11 13 15 16 15 13 10 10 12 11 9 7 6 5 4 4 2 1 2 3 3 3 4 4 4 5 6 5 6 8 8 8 10 12
18 19 20 23 26 28 28 27 26 26 26 26 27 27 27 29 31 31 29 29 30 32 32 32 31 32 32 32 31 30 28 27 27 26 25 25 25 23 20 20 21 22 21 20 19 18 16 14 13 11 10 11 11 12 12 15 17 17 15 12 12 13 12 9 8 7 6 6 5 4 3 3 3 3 3 4 4 4 6 6 6 7 8 8 8 9 11
19 19 21 24 26 28 28 26 25 24 24 25 25 26 27 28 29 29 28 28 29 31 31 31 32 33 32 31 30 28 27 27 27 26 25 25 24 23 22 22 22 22 21 21 20 19 18 16 14 12 11 11 12 13 12 13 14 15 15 14 15 15 13 10 9 7 7 8 8 7 5 4 3 3 4 4 5 5 6 7 8 9 10 9 9 9 10
17 17 20 25 27 27 28 27 25 24 24 24 24 24 26 27 27 27 27 28 29 30 31 32 33 32 31 30 28 27 27 27 26 25 24 24 24 24 23 24 24 24 23 23 21 20 18 17 15 13 12 12 12 13 13 14 14 13 12 13 16 16 13 11 10 8 8 9 9 9 7 5 4 4 4 4 5 5 6 7 8 10 11 11 10 10 10
15 15 18 22 25 26 27 26 24 24 24 25 24 23 23 24 25 27 28 30 30 31 31 31 30 29 29 29 28 27 26 26 25 25 24 24 23 24 26 26 26 26 25 24 22 21 20 18 16 16 15 13 13 13 14 14 15 13 10 11 15 16 14 12 11 10 9 10 10 9 7 6 6 5 4 5 5 5 6 7 8 9 10 11 11 12 11
17 17 18 21 24 26 26 25 24 24 23 24 24 23 22 22 25 28 30 32 32 31 30 30 30 29 29 30 29 27 26 26 25 25 25 23 23 24 27 28 27 25 23 22 22 22 21 19 19 19 18 15 13 13 13 14 15 14 11 11 15 16 15 14 12 11 10 11 10 9 8 7 7 6 5 5 5 5 6 6 7 8 9 10 11 12 12
18 18 19 21 23 25 25 25 25 24 23 23 23 22 23 25 29 32 33 33 31 30 29 29 29 29 28 29 29 28 27 26 26 25 25 23 22 24 27 28 26 24 22 21 22 22 21 20 20 21 20 17 15 14 13 14 16 15 12 12 14 17 17 15 13 11 11 12 12 11 10 9 8 8 7 7 6 6 6 7 7 8 9 10 10 11 12
18 18 19 21 23 24 24 24 25 24 23 23 22 21 23 28 33 34 33 31 30 29 30 29 27 25 26 27 28 27 25 25 26 25 25 23 22 24 27 26 24 22 21 21 22 23 22 21 22 22 21 20 19 18 16 15 16 16 14 12 13 16 17 16 14 12 13 13 14 13 12 11 10 9 9 9 8 8 8 8 8 9 9 9 9 10 11
19 18 19 21 22 22 22 24 25 25 24 24 22 21 24 30 33 32 30 29 29 30 29 26 23 22 23 25 26 26 25 25 26 26 26 25 23 24 23 21 18 18 19 20 22 23 24 24 25 24 23 22 22 21 20 19 18 18 16 14 14 15 17 17 16 14 14 15 15 15 15 13 12 11 11 10 10 9 9 9 10 11 10 10 10 9 10
20 20 20 21 22 23 24 24 25 25 25 25 23 22 24 30 32 30 29 29 29 29 27 25 23 22 23 24 26 26 26 26 27 28 27 26 24 23 21 16 14 16 19 20 22 24 25 25 26 26 24 23 22 22 22 21 20 20 20 18 16 16 17 18 18 17 16 16 16 17 16 15 14 12 12 11 11 10 10 11 12 12 11 11 10 10 10
21 22 22 21 22 24 25 25 26 27 27 28 26 23 25 29 32 31 29 29 29 28 26 24 24 24 25 26 27 27 27 27 29 29 29 29 28 27 23 19 16 17 19 21 23 25 26 26 25 24 23 23 23 23 23 22 22 22 23 21 19 18 19 19 20 20 20 19 18 18 17 17 15 14 13 13 13 13 13 14 14 13 12 12 11 11 10
24 25 24 23 23 25 27 29 29 29 29 29 28 26 26 30 33 33 31 30 29 28 26 24 25 27 28 28 28 27 25 25 26 28 29 30 30 27 24 21 21 20 19 21 24 26 27 27 25 23 22 22 22 22 22 22 22 22 23 23 21 20 20 20 20 21 22 21 20 20 19 19 18 17 16 16 16 16 17 17 16 15 14 13 12 12 11
27 28 27 26 26 27 28 29 29 29 29 30 29 29 29 32 35 35 33 30 28 26 24 24 26 28 28 28 28 28 27 26 26 26 26 26 25 23 21 21 22 22 21 23 25 26 27 28 26 24 22 22 22 21 21 21 21 22 23 23 23 23 22 20 20 20 22 23 22 22 22 21 20 19 19 18 18 19 19 18 18 17 16 15 13 13 12
29 29 30 30 29 29 28 28 28 29 31 33 32 32 32 34 36 37 35 31 28 26 24 25 26 28 28 27 27 28 28 29 29 28 26 25 23 22 21 22 23 22 23 24 26 27 28 29 28 25 22 22 22 22 23 23 23 22 22 22 24 26 25 23 21 20 21 23 24 24 23 23 22 21 21 21 21 20 20 19 19 18 18 16 15 14 14
31 31 31 31 31 31 30 30 30 31 33 34 32 31 32 35 37 37 35 31 28 27 26 26 27 28 29 29 28 27 27 28 28 27 26 24 22 21 21 21 21 20 21 23 26 28 29 29 28 25 24 23 24 25 25 26 25 24 22 22 23 25 26 26 25 22 22 23 25 26 26 25 24 23 22 22 21 21 20 19 19 19 18 17 16 15 16
32 32 31 32 32 32 32 33 33 32 32 32 30 29 30 33 35 36 34 32 29 28 28 28 28 29 29 30 30 28 26 26 25 24 22 22 21 20 20 20 20 18 19 20 23 25 26 27 26 25 25 26 27 27 27 27 28 27 25 22 22 23 25 27 27 26 25 25 26 27 27 26 25 23 22 21 21 20 20 20 19 18 18 17 17 17 17
32 33 33 34 34 34 35 35 35 34 33 33 32 31 31 33 35 35 34 31 30 29 29 30 30 29 29 29 29 28 26 25 24 22 20 20 20 20 20 21 20 20 21 21 21 21 23 24 25 26 27 29 29 29 28 28 29 28 26 24 22 23 25 27 28 29 28 27 26 27 27 26 23 22 21 21 21 20 20 19 19 18 18 18 18 18 18
33 35 35 34 33 32 33 34 34 32 32 33 34 33 32 32 34 34 32 30 30 30 30 31 31 30 28 28 29 28 27 27 26 23 21 20 20 20 21 22 22 22 22 23 23 23 24 25 26 28 29 29 29 28 28 28 28 28 26 24 24 25 26 28 29 30 29 28 28 28 27 25 23 22 22 21 20 20 19 20 19 18 18 19 18 18 18
33 34 34 34 32 31 32 33 32 32 32 33 33 33 33 33 33 33 32 32 31 31 31 32 32 30 29 29 29 28 28 28 27 25 23 22 22 21 22 23 24 23 23 24 24 25 26 27 28 30 30 30 29 28 27 27 28 28 27 26 26 26 28 29 30 30 30 29 29 28 26 24 23 22 21 21 20 20 20 20 20 19 19 18 17 16 16
Wind_Direction
327 327 279 190 98 104 92 96 117 126 155 169 162 181 191 151 153 204 178 166 169 175 176 172 166 160 155 152 150 148 147 148 149 149 148 147 146 146 147 147 145 143 143 144 142 140 137 135 134 131 127 124 120 113 109 108 108 110 108 96 87 78 68 63 60 59 64 64 57 49 45 47 48 49 49 47 43 41 37 33 31 28 26 25 23 22 20
10 352 317 357 109 106 59 49 31 46 152 160 142 151 148 124 121 154 158 164 175 172 171 166 155 152 148 146 147 149 151 151 151 151 149 147 147 149 151 150 146 143 142 143 142 141 141 141 138 132 128 123 117 111 112 115 114 115 112 98 85 76 71 72 73 73 74 70 61 55 51 50 49 48 47 44 42 40 38 35 33 31 28 25 23 22 20
356 345 346 25 116 113 89 57 14 19 83 92 89 115 114 90 82 118 137 139 139 151 148 142 144 146 145 146 151 153 154 154 152 151 149 148 149 152 154 153 149 146 145 145 146 146 146 144 140 134 129 122 111 106 112 120 119 117 112 96 85 84 83 84 85 84 80 74 67 60 56 53 51 50 47 45 42 39 37 35 33 31 28 25 23 21 20
316 324 15 25 97 98 88 54 11 5 43 104 129 167 171 136 127 124 127 140 168 162 146 142 146 149 150 153 155 155 156 156 154 153 151 149 150 153 156 157 154 152 150 148 148 150 150 147 143 137 130 120 107 101 106 117 121 119 110 95 94 95 91 85 83 82 79 74 68 62 58 55 54 51 48 45 42 39 36 33 31 30 27 25 22 20 19
252 277 352 347 46 88 76 322 344 306 278 151 139 360 350 135 138 138 154 180 169 154 149 149 155 159 160 160 159 157 157 157 157 156 154 152 152 152 153 155 156 155 153 149 147 149 150 149 143 137 130 120 107 98 99 108 117 115 105 100 101 98 89 82 79 77 73 70 66 63 60 58 55 52 49 46 43 40 37 33 30 29 27 25 23 20 17
205 264 341 13 63 153 236 271 241 219 219 143 129 105 56 92 138 165 152 144 147 152 160 163 164 165 163 161 161 161 161 161 160 158 156 155 153 151 150 152 153 153 154 151 146 146 148 147 141 136 131 121 108 97 94 101 109 109 106 105 100 93 85 79 75 71 68 65 63 61 60 57 54 52 50 48 45 41 37 33 30 28 26 24 23 21 18
169 271 17 76 184 228 269 304 292 198 160 127 110 80 44 26 342 152 126 140 154 158 160 159 155 154 155 158 162 164 165 166 162 158 157 158 157 155 153 153 152 153 154 151 147 146 145 144 141 138 133 124 112 99 95 100 108 110 110 105 96 88 83 77 71 67 64 63 61 59 57 54 52 51 49 47 44 40 37 34 31 28 26 24 24 22 19
137 59 50 153 230 284 327 342 334 140 133 125 109 68 360 347 330 165 142 143 150 146 145 148 147 146 148 150 158 166 168 168 164 161 160 162 163 162 160 157 156 155 155 152 149 146 144 143 142 139 135 130 118 105 100 104 108 108 107 102 94 88 83 76 70 65 62 60 58 56 54 52 51 49 47 44 42 39 36 33 31 29 27 25 24 23 20
129 110 83 332 327 317 315 317 249 182 165 168 148 135 250 266 293 169 147 141 143 140 140 143 142 141 139 133 147 166 169 167 165 164 162 163 166 164 162 161 158 155 155 153 150 146 143 142 143 140 138 136 126 112 107 109 109 106 102 98 93 88 83 77 71 65 60 57 55 54 52 51 50 48 45 43 41 37 34 32 31 29 29 28 26 24 21
104 106 90 49 35 278 239 218 223 222 212 192 144 111 249 258 211 166 154 146 146 143 140 140 139 138 138 136 161 167 167 165 163 161 160 162 164 162 161 160 157 155 155 153 150 147 146 145 145 143 140 138 131 118 111 113 113 108 102 97 93 89 84 79 73 65 60 55 53 51 50 49 47 46 44 42 39 37 34 32 31 30 30 30 28 27 24
129 114 127 170 186 249 232 204 214 219 200 182 123 83 261 234 168 160 157 150 151 151 148 147 145 144 154 177 171 165 163 163 162 160 159 161 161 159 160 159 156 155 155 152 151 150 149 148 147 145 142 139 135 124 113 114 116 112 106 99 93 89 85 81 75 67 60 54 50 48 45 44 44 43 42 41 39 36 34 32 31 30 30 30 29 29 27
158 128 134 199 216 251 233 191 178 189 183 160 112 82 247 200 165 162 162 158 157 157 156 156 156 165 181 172 166 164 163 162 164 162 160 161 159 158 159 159 157 156 155 153 153 151 150 149 149 148 146 142 139 128 114 112 115 113 109 103 97 91 85 81 77 69 59 52 47 43 40 39 40 40 40 40 39 36 34 32 31 29 29 29 29 28 28
142 134 140 259 253 249 236 178 168 171 163 140 160 236 211 173 165 166 164 161 161 161 163 166 167 170 167 159 158 161 161 160 161 161 160 160 160 158 159 159 158 157 155 154 152 150 150 150 151 152 149 144 143 134 119 113 113 111 111 110 105 98 89 82 77 69 60 50 43 40 37 34 34 37 38 38 38 36 34 32 30 29 29 29 28 27 26
128 133 117 349 272 242 168 148 164 168 149 180 219 222 165 162 163 163 163 163 163 164 167 169 157 135 145 153 154 157 159 158 157 158 159 158 159 159 159 159 159 157 155 154 153 151 151 152 154 156 153 146 142 136 125 118 115 112 112 114 112 105 94 85 76 68 59 49 43 40 35 31 30 33 36 36 36 36 34 31 30 29 28 28 28 27 25
120 52 81 129 276 211 151 139 153 192 182 204 187 139 150 162 161 160 162 164 164 166 165 159 147 142 146 152 154 156 158 157 156 158 159 159 159 159 159 160 161 160 156 154 153 150 150 153 156 157 156 148 142 139 133 126 120 116 115 115 113 111 102 88 78 69 59 49 44 39 34 30 28 30 33 34 35 35 33 32 30 28 27 26 26 26 25
133 100 174 185 280 207 162 148 153 194 177 184 155 144 148 161 164 162 162 164 166 167 161 149 145 146 148 152 155 155 156 157 156 157 159 160 160 160 159 159 161 160 156 152 151 150 151 153 154 154 153 147 142 142 138 131 126 124 121 116 110 110 109 98 86 75 61 50 43 37 32 29 26 27 30 32 33 33 33 32 31 28 26 25 25 25 24
160 174 211 229 304 219 186 183 107 167 167 157 161 160 159 164 169 168 164 163 165 165 158 149 147 149 151 154 156 157 157 158 158 159 161 162 161 161 161 161 163 161 156 152 151 151 153 153 152 153 152 147 144 143 138 131 130 133 133 125 112 107 109 106 96 81 61 46 39 33 29 27 25 26 28 30 32 32 32 32 31 29 26 24 24 24 23
202 168 237 296 13 152 192 194 145 163 171 167 169 171 167 166 170 170 166 163 162 160 157 152 150 152 154 156 157 158 158 159 160 161 162 162 162 162 162 163 164 162 157 154 152 152 153 154 152 151 150 147 145 145 143 141 144 149 153 147 125 110 104 96 93 83 55 38 32 28 26 25 26 26 26 29 31 31 32 33 31 29 27 25 23 22 22
157 331 334 347 27 115 158 154 149 159 167 170 174 175 171 168 168 169 166 163 160 159 159 156 154 155 156 157 157 159 160 161 162 162 162 163 164 164 162 161 163 161 157 155 154 153 154 156 155 152 150 147 145 146 147 150 155 162 172 170 141 117 102 85 85 81 44 31 28 24 23 25 26 26 27 30 31 31 32 34 32 30 28 25 23 22 21
139 240 269 62 81 113 139 154 163 164 163 168 172 171 169 168 166 166 165 163 160 159 160 159 156 156 158 158 158 160 161 162 163 164 164 165 164 164 162 160 162 163 160 157 156 156 155 158 160 159 155 152 151 151 151 151 150 154 162 162 144 128 115 90 80 71 45 34 28 23 22 25 27 29 30 32 32 32 33 33 32 30 29 27 26 24 21
73 265 184 120 99 79 123 158 167 168 167 167 166 167 168 166 164 163 162 163 162 160 159 158 156 156 159 161 160 161 163 163 164 165 165 165 165 165 164 163 164 165 163 160 159 159 157 157 159 160 160 160 159 160 156 147 137 136 141 145 144 143 136 103 82 72 56 45 38 32 30 29 30 32 34 35 36 36 34 33 32 31 29 29 29 27 25
196 231 183 165 143 101 172 164 160 164 168 166 162 162 164 164 164 162 159 159 161 161 160 160 158 157 159 162 162 163 165 165 165 164 165 166 167 166 166 167 168 168 165 162 161 161 159 160 160 158 158 158 161 168 170 157 140 129 127 130 144 165 170 125 89 78 63 54 51 45 40 36 34 36 37 37 39 39 37 34 32 31 30 30 29 29 28
226 204 178 169 133 110 155 161 159 164 170 167 162 162 164 163 163 163 160 157 158 160 161 163 163 161 161 163 165 165 167 167 166 165 168 170 169 169 170 169 167 167 166 166 165 164 163 164 163 159 155 154 156 165 171 164 149 139 134 125 125 152 176 150 100 83 68 60 57 50 43 37 36 38 39 38 40 42 39 34 32 31 30 29 28 27 26
187 179 173 172 149 144 158 162 162 165 171 169 164 162 163 162 161 163 163 161 160 161 162 164 167 166 164 165 168 168 167 167 167 169 171 173 171 171 171 168 165 165 167 169 170 170 168 168 166 162 160 159 159 160 161 158 156 161 166 155 112 122 153 139 109 95 78 64 57 48 41 37 35 37 38 37 39 41 39 35 32 30 30 29 27 26 25
168 169 169 173 163 154 155 157 161 165 172 173 166 163 163 163 162 163 164 163 164 164 163 163 166 167 166 168 172 171 167 167 170 172 171 172 172 172 172 171 170 170 171 172 173 174 173 171 169 167 167 169 168 165 165 168 172 180 188 193 150 112 134 130 118 110 90 66 54 45 39 36 34 34 36 36 37 39 37 34 31 30 29 28 26 25 25
170 162 158 150 147 150 152 154 158 165 172 172 166 164 165 165 164 165 165 165 166 166 166 165 166 167 169 172 173 171 167 168 171 172 171 171 173 173 173 174 175 175 176 176 177 177 177 176 174 174 174 175 174 176 179 180 182 189 192 196 200 137 141 136 127 119 96 68 52 41 38 38 36 33 33 33 35 37 35 31 30 30 29 28 27 25 24
165 163 152 135 136 152 160 161 161 166 172 170 165 165 167 166 165 165 164 164 166 167 168 169 168 168 171 173 172 170 169 168 170 171 172 173 174 174 175 175 174 174 176 178 179 180 180 180 180 182 183 183 183 186 189 185 184 189 192 190 164 153 152 145 130 119 98 56 38 31 38 45 43 37 35 34 32 34 33 29 28 28 28 28 27 25 24
165 168 166 157 159 167 169 166 163 166 170 169 166 167 168 167 165 164 162 163 165 167 168 171 171 171 171 172 171 170 169 169 170 172 174 175 174 174 176 176 174 173 175 177 180 183 182 181 183 186 188 190 190 190 191 191 191 193 192 175 152 154 157 158 153 185 279 304 357 14 32 47 47 42 40 37 31 28 29 27 25 25 27 28 26 24 23
165 169 176 177 170 167 166 165 166 168 170 170 168 167 167 166 164 164 165 165 167 167 168 170 172 172 171 172 173 172 170 171 172 174 175 176 176 178 179 178 176 176 177 179 183 185 184 183 185 190 193 195 194 193 196 200 199 200 197 172 156 157 165 184 207 243 264 261 182 5 18 40 45 43 42 40 32 25 23 24 22 20 22 25 25 24 23
167 172 176 170 163 164 165 165 166 168 170 171 170 169 170 170 166 165 167 169 169 169 169 169 171 172 172 174 175 174 173 174 175 175 176 177 179 183 184 179 176 178 182 183 186 189 189 189 190 195 198 199 200 201 204 205 202 202 202 187 175 175 184 200 211 209 184 149 136 158 347 27 37 40 41 40 34 25 21 19 16 15 16 20 21 21 20
167 172 170 164 164 166 166 165 167 169 169 171 171 170 171 172 169 166 167 169 170 170 170 170 172 173 175 176 176 176 175 175 175 176 178 181 184 187 186 182 180 182 183 182 183 188 193 196 198 202 205 207 210 212 212 211 208 208 211 208 201 199 202 207 215 216 186 145 133 160 207 6 17 24 30 33 31 25 19 17 11 8 11 15 15 15 16
160 159 161 163 165 166 165 166 167 167 167 169 171 170 171 173 171 168 168 169 170 171 172 174 176 177 177 176 176 176 176 176 177 179 183 186 187 186 185 185 187 187 184 179 175 179 189 196 201 206 210 213 216 217 214 212 212 215 220 222 214 207 206 208 215 223 206 165 151 171 220 328 347 355 2 10 17 19 16 13 4 360 5 10 9 8 10
157 153 156 163 165 165 166 168 169 168 168 171 172 171 173 175 174 171 170 170 171 173 175 177 178 178 177 178 179 180 180 180 182 184 186 186 184 182 185 191 193 191 188 184 179 179 185 191 196 204 210 211 212 214 213 213 214 218 226 232 221 207 206 208 215 223 217 193 187 194 251 291 299 310 323 329 341 359 6 7 357 350 357 3 0 359 3
176 170 169 173 175 172 170 171 172 171 170 172 173 175 176 177 175 172 170 171 174 176 178 178 179 180 181 182 183 184 184 184 183 183 183 182 182 183 187 191 192 191 191 191 190 193 197 199 200 205 210 210 212 215 215 216 218 222 232 237 220 207 208 214 221 230 236 229 221 224 257 264 248 243 271 294 304 324 343 351 351 348 350 352 350 350 356
194 187 181 182 184 181 176 173 174 176 175 174 176 176 176 175 174 174 174 176 178 179 179 181 182 184 185 185 185 185 186 186 183 182 183 184 186 189 190 189 189 191 194 198 201 204 205 208 212 218 220 218 218 218 217 218 222 228 235 233 216 208 211 218 223 232 241 240 238 244 253 253 248 253 270 276 275 293 318 332 340 345 346 342 341 345 352
193 188 183 183 184 184 180 176 178 183 183 180 177 177 176 176 177 180 182 183 183 184 185 186 187 186 186 187 187 187 187 186 185 186 187 189 191 194 196 196 195 196 198 203 207 208 209 212 219 227 229 225 222 221 219 216 218 225 230 223 213 210 215 219 222 231 237 236 240 249 252 253 264 282 289 277 266 281 308 324 335 343 344 340 339 345 353
193 193 190 186 184 184 185 182 182 187 189 185 181 180 181 182 185 188 190 190 190 190 189 188 187 187 188 189 189 188 188 189 190 191 193 195 197 201 204 206 204 204 206 209 210 210 212 216 223 229 229 224 223 223 220 212 210 215 220 216 212 214 219 220 223 232 237 237 242 250 253 258 273 289 300 294 283 294 316 326 332 341 345 343 342 345 350
197 199 197 193 189 187 187 187 188 190 190 186 184 185 186 189 194 197 197 196 193 190 188 187 187 188 189 189 190 190 191 193 195 196 198 202 205 208 209 208 207 208 211 214 216 216 217 221 225 226 223 221 222 224 224 221 218 219 221 217 216 219 221 222 227 237 242 242 244 248 251 261 274 287 303 308 304 314 331 334 335 341 347 349 349 348 348
202 200 200 199 194 191 190 192 193 193 191 188 187 189 192 195 197 197 195 192 187 185 185 186 187 188 189 190 193 195 196 198 200 201 204 209 212 212 209 207 209 213 216 216 215 218 221 225 226 223 220 220 224 228 230 229 226 225 226 223 222 224 225 226 231 241 246 244 243 245 251 262 272 278 290 304 311 319 329 334 337 341 344 347 352 352 349
205 202 200 199 196 194 194 195 195 195 194 191 190 191 195 196 192 189 187 185 183 184 187 187 188 191 194 196 196 196 198 200 203 206 210 214 217 215 212 212 216 220 221 218 216 218 222 225 225 222 221 224 229 234 235 232 227 226 228 227 225 226 227 229 233 241 245 242 242 245 252 261 270 275 280 291 304 310 314 319 327 331 332 336 345 349 348
207 204 202 200 198 197 197 198 196 195 194 193 193 196 197 194 189 186 185 185 186 188 189 190 191 195 199 200 200 199 200 204 207 210 213 217 217 215 215 217 220 221 223 224 224 224 226 226 226 225 227 231 235 240 242 237 228 224 226 227 228 229 231 233 236 240 239 237 240 246 252 256 263 271 276 282 291 298 302 306 310 313 316 321 331 340 343
204 203 202 202 200 199 197 196 196 195 195 195 196 197 195 192 190 189 189 188 188 189 191 194 197 198 199 201 203 204 205 208 210 213 216 219 218 217 218 221 221 221 223 226 227 228 230 230 228 228 232 235 238 241 245 244 236 228 227 230 233 235 235 237 238 238 236 237 243 251 254 253 257 265 271 274 279 285 288 290 294 298 302 308 316 326 334
203 203 204 204 202 200 198 197 197 196 196 196 198 200 198 195 193 192 191 191 191 192 194 196 199 201 202 204 206 209 212 214 214 216 219 221 222 224 228 231 231 229 228 228 226 226 227 227 227 230 235 238 237 238 241 244 241 236 233 235 239 241 241 241 241 239 238 240 245 251 252 250 254 261 266 268 272 274 273 277 283 288 291 296 303 312 321
202 202 203 204 202 200 199 200 200 199 197 197 199 204 205 201 198 199 199 198 197 197 198 199 203 207 209 210 210 212 216 218 218 220 222 224 225 228 231 236 240 239 237 234 230 226 224 224 227 233 237 236 232 231 235 239 241 240 238 239 241 243 244 245 245 243 242 243 246 249 251 252 256 260 263 264 265 265 266 272 279 283 285 288 292 300 309
201 199 200 201 201 200 201 202 202 201 200 199 202 208 211 207 204 205 206 203 201 203 207 210 212 213 214 215 216 217 218 220 222 223 224 226 229 232 235 238 241 240 234 229 228 227 225 224 227 231 230 226 224 226 231 236 241 244 243 242 241 241 243 246 247 245 244 246 248 249 250 253 256 260 262 263 263 264 268 273 277 279 281 282 283 289 297
200 198 197 198 199 199 201 202 201 201 201 203 208 215 217 213 209 208 208 207 208 212 217 220 219 216 215 219 222 223 223 225 227 228 229 233 238 244 247 248 246 241 230 223 224 227 225 223 224 226 225 221 223 228 234 238 243 248 248 245 242 240 241 245 247 247 248 250 249 248 248 250 254 258 262 264 266 268 271 273 275 279 282 280 278 280 286
203 200 200 201 201 202 203 205 205 206 208 212 216 219 219 216 213 211 210 212 214 217 219 221 221 219 217 219 222 224 227 230 232 232 233 235 241 249 251 249 246 240 231 225 226 228 226 223 224 228 228 226 227 232 236 240 245 249 249 245 242 240 241 244 248 250 252 252 249 247 247 249 251 256 262 266 268 270 271 272 276 282 284 279 273 272 276
209 208 206 205 206 209 212 214 214 215 215 217 218 218 216 214 212 211 212 214 216 217 217 220 223 224 224 226 228 230 231 231 232 232 230 230 235 242 242 237 234 235 234 232 232 232 229 227 228 231 233 233 234 236 238 242 245 248 248 247 244 243 244 246 248 250 254 255 253 251 250 251 253 258 264 266 267 268 270 274 279 283 282 276 270 269 272
214 214 213 212 211 213 216 217 217 216 216 215 215 214 212 211 211 211 213 216 218 218 218 221 225 227 229 231 232 231 228 227 229 233 235 234 233 231 226 221 223 229 236 239 240 239 236 232 230 230 232 236 240 242 243 244 245 246 248 250 250 249 249 250 250 252 256 260 259 256 253 254 257 261 263 263 264 267 272 277 280 281 278 276 274 272 272
216 215 215 214 213 213 215 217 218 219 219 219 217 213 210 210 210 212 215 219 222 222 223 225 228 230 230 229 228 227 227 228 232 237 240 239 235 230 226 225 228 232 236 238 239 240 237 232 229 229 232 237 241 245 246 245 244 245 248 252 255 255 254 253 253 253 256 260 261 258 255 255 258 260 260 260 264 269 274 277 278 279 281 282 280 274 270
218 216 215 215 216 217 219 220 222 223 224 222 218 214 212 213 214 217 221 225 227 227 227 227 228 229 230 228 227 227 231 234 235 237 239 241 240 238 237 237 236 236 236 236 236 237 237 235 234 235 237 239 242 244 245 244 243 244 247 252 256 258 257 255 255 255 257 260 261 258 255 254 254 255 257 261 267 273 276 277 278 282 288 289 284 275 270
224 222 221 221 222 223 224 225 227 227 225 222 221 220 220 221 221 223 226 228 228 228 228 229 230 231 233 233 232 232 235 237 237 236 236 237 237 236 236 237 237 237 239 239 238 238 240 241 243 244 244 244 245 247 248 246 244 244 247 252 256 258 257 256 255 255 257 259 258 255 252 250 251 253 257 263 269 274 277 278 280 285 289 288 281 274 270